TimeCST,TemperatureF,Dew PointF,Humidity,Sea Level PressureIn,VisibilityMPH,Wind Direction,Wind SpeedMPH,Gust SpeedMPH,PrecipitationIn,Events,Conditions,WindDirDegrees,DateUTC
12:15 AM,37.6,27.9,68,30.14,10.0,WSW,5.8,-,N/A,,Overcast,250,2012-11-15 06:15:00
12:35 AM,38.1,28.2,68,30.15,10.0,West,5.8,-,N/A,,Overcast,260,2012-11-15 06:35:00
12:55 AM,38.1,28.6,69,30.15,10.0,West,5.8,-,N/A,,Overcast,280,2012-11-15 06:55:00
1:15 AM,38.5,28.9,69,30.15,10.0,West,5.8,-,N/A,,Overcast,270,2012-11-15 07:15:00
1:35 AM,37.2,28.8,71,30.15,10.0,West,4.6,-,N/A,,Scattered Clouds,280,2012-11-15 07:35:00
1:55 AM,37.0,29.1,73,30.15,10.0,WNW,5.8,-,N/A,,Clear,290,2012-11-15 07:55:00
2:15 AM,37.8,29.3,72,30.16,10.0,West,8.1,-,N/A,,Clear,280,2012-11-15 08:15:00
2:35 AM,35.6,28.4,75,30.17,10.0,West,3.5,-,N/A,,Clear,280,2012-11-15 08:35:00
2:55 AM,35.1,28.9,78,30.17,10.0,West,3.5,-,N/A,,Clear,270,2012-11-15 08:55:00
3:15 AM,35.2,29.3,79,30.18,10.0,West,4.6,-,N/A,,Clear,270,2012-11-15 09:15:00
3:35 AM,32.9,27.7,81,30.19,10.0,West,5.8,-,N/A,,Clear,280,2012-11-15 09:35:00
3:55 AM,32.0,27.0,82,30.20,10.0,WNW,6.9,-,N/A,,Clear,300,2012-11-15 09:55:00
4:15 AM,31.1,26.6,83,30.20,10.0,WNW,9.2,-,N/A,,Clear,290,2012-11-15 10:15:00
4:35 AM,31.6,27.7,85,30.21,10.0,WNW,9.2,-,N/A,,Clear,300,2012-11-15 10:35:00
4:55 AM,30.7,26.4,84,30.22,10.0,WNW,10.4,-,N/A,,Clear,290,2012-11-15 10:55:00
5:15 AM,31.1,26.4,83,30.23,10.0,WNW,9.2,-,N/A,,Clear,290,2012-11-15 11:15:00
5:35 AM,30.9,25.9,82,30.24,10.0,West,5.8,-,N/A,,Clear,280,2012-11-15 11:35:00
5:55 AM,29.8,25.2,83,30.24,10.0,West,8.1,-,N/A,,Clear,280,2012-11-15 11:55:00
6:15 AM,30.0,25.5,83,30.25,10.0,WNW,9.2,-,N/A,,Clear,290,2012-11-15 12:15:00
6:35 AM,30.2,25.2,82,30.27,10.0,WNW,6.9,-,N/A,,Clear,300,2012-11-15 12:35:00
6:55 AM,28.2,23.2,81,30.28,10.0,WNW,8.1,-,N/A,,Clear,300,2012-11-15 12:55:00
7:15 AM,29.5,25.0,83,30.29,10.0,WNW,8.1,-,N/A,,Clear,300,2012-11-15 13:15:00
7:35 AM,29.1,24.1,81,30.30,10.0,WNW,8.1,-,N/A,,Clear,300,2012-11-15 13:35:00
7:55 AM,28.9,23.9,81,30.31,10.0,WNW,6.9,-,N/A,,Clear,300,2012-11-15 13:55:00
8:15 AM,31.6,25.5,78,30.32,10.0,WNW,8.1,-,N/A,,Clear,300,2012-11-15 14:15:00
8:35 AM,33.1,26.6,77,30.33,10.0,WNW,5.8,-,N/A,,Clear,300,2012-11-15 14:35:00
8:55 AM,34.7,28.0,77,30.34,10.0,WNW,8.1,-,N/A,,Clear,290,2012-11-15 14:55:00
9:15 AM,36.1,28.2,73,30.35,10.0,WNW,9.2,-,N/A,,Clear,300,2012-11-15 15:15:00
9:35 AM,38.3,28.9,69,30.36,10.0,NW,11.5,-,N/A,,Clear,320,2012-11-15 15:35:00
9:55 AM,39.6,28.9,66,30.36,10.0,NNW,11.5,-,N/A,,Clear,330,2012-11-15 15:55:00
10:15 AM,41.0,28.8,62,30.37,10.0,NNW,10.4,-,N/A,,Clear,340,2012-11-15 16:15:00
10:35 AM,42.4,28.9,59,30.38,10.0,NNW,10.4,-,N/A,,Clear,330,2012-11-15 16:35:00
10:55 AM,44.2,28.9,55,30.38,10.0,NNW,10.4,-,N/A,,Clear,330,2012-11-15 16:55:00
11:15 AM,44.6,28.8,54,30.39,10.0,NNW,15.0,-,N/A,,Clear,330,2012-11-15 17:15:00
11:35 AM,44.8,29.3,55,30.38,10.0,North,11.5,-,N/A,,Clear,350,2012-11-15 17:35:00
11:55 AM,45.7,28.8,52,30.38,10.0,North,9.2,-,N/A,,Clear,350,2012-11-15 17:55:00
12:15 PM,46.0,28.4,50,30.37,10.0,NNW,10.4,-,N/A,,Clear,340,2012-11-15 18:15:00
12:35 PM,46.6,28.6,50,30.37,10.0,NNW,8.1,-,N/A,,Clear,340,2012-11-15 18:35:00
12:55 PM,47.5,28.6,48,30.36,10.0,NNW,9.2,-,N/A,,Clear,340,2012-11-15 18:55:00
1:15 PM,48.2,28.2,46,30.36,10.0,NNW,8.1,-,N/A,,Clear,340,2012-11-15 19:15:00
1:35 PM,48.2,28.2,46,30.36,10.0,North,10.4,-,N/A,,Clear,360,2012-11-15 19:35:00
1:55 PM,48.4,28.0,45,30.36,10.0,North,8.1,-,N/A,,Clear,360,2012-11-15 19:55:00
2:15 PM,48.0,27.1,44,30.36,10.0,North,9.2,-,N/A,,Clear,350,2012-11-15 20:15:00
2:35 PM,48.4,26.6,43,30.36,10.0,NNW,9.2,-,N/A,,Clear,340,2012-11-15 20:35:00
2:55 PM,48.2,26.1,42,30.36,10.0,North,9.2,-,N/A,,Clear,360,2012-11-15 20:55:00
3:15 PM,48.4,25.5,41,30.36,10.0,North,9.2,-,N/A,,Clear,350,2012-11-15 21:15:00
3:35 PM,48.0,24.8,40,30.36,10.0,North,5.8,-,N/A,,Clear,350,2012-11-15 21:35:00
3:55 PM,47.7,24.4,40,30.37,10.0,North,6.9,-,N/A,,Clear,350,2012-11-15 21:55:00
4:15 PM,47.3,24.8,41,30.37,10.0,NNE,4.6,-,N/A,,Clear,20,2012-11-15 22:15:00
4:35 PM,46.2,24.6,43,30.37,10.0,NNE,4.6,-,N/A,,Clear,30,2012-11-15 22:35:00
4:55 PM,43.5,24.4,47,30.38,10.0,NNE,4.6,-,N/A,,Clear,20,2012-11-15 22:55:00
5:15 PM,40.5,24.3,52,30.38,10.0,NE,4.6,-,N/A,,Clear,40,2012-11-15 23:15:00
5:35 PM,36.5,22.8,58,30.38,10.0,NE,6.9,-,N/A,,Clear,50,2012-11-15 23:35:00
5:55 PM,35.2,23.0,61,30.38,10.0,NE,9.2,-,N/A,,Clear,40,2012-11-15 23:55:00
6:15 PM,32.7,22.8,67,30.39,10.0,NE,8.1,-,N/A,,Clear,50,2012-11-16 00:15:00
6:35 PM,32.4,23.0,68,30.39,10.0,NE,5.8,-,N/A,,Clear,50,2012-11-16 00:35:00
6:55 PM,31.5,22.5,69,30.41,10.0,Calm,Calm,-,N/A,,Clear,0,2012-11-16 00:55:00
7:15 PM,32.0,23.5,71,30.40,10.0,Calm,Calm,-,N/A,,Clear,0,2012-11-16 01:15:00
7:35 PM,31.8,23.7,72,30.40,10.0,East,3.5,-,N/A,,Clear,90,2012-11-16 01:35:00
7:55 PM,29.1,22.3,76,30.41,10.0,East,4.6,-,N/A,,Clear,90,2012-11-16 01:55:00
8:15 PM,29.3,22.6,76,30.41,10.0,East,3.5,-,N/A,,Clear,100,2012-11-16 02:15:00
8:35 PM,26.2,21.2,81,30.41,10.0,ESE,3.5,-,N/A,,Clear,120,2012-11-16 02:35:00
8:55 PM,25.3,21.4,85,30.41,10.0,SSE,3.5,-,N/A,,Clear,150,2012-11-16 02:55:00
9:15 PM,26.8,22.1,83,30.42,10.0,SSE,3.5,-,N/A,,Clear,160,2012-11-16 03:15:00
9:35 PM,24.8,20.3,83,30.41,10.0,SE,4.6,-,N/A,,Clear,130,2012-11-16 03:35:00
9:55 PM,26.4,22.3,84,30.41,10.0,ESE,5.8,-,N/A,,Clear,120,2012-11-16 03:55:00
10:15 PM,25.7,21.4,84,30.41,10.0,SE,5.8,-,N/A,,Clear,140,2012-11-16 04:15:00
10:35 PM,23.0,19.2,85,30.41,10.0,South,4.6,-,N/A,,Clear,170,2012-11-16 04:35:00
10:55 PM,23.2,20.5,89,30.40,10.0,SE,5.8,-,N/A,,Clear,140,2012-11-16 04:55:00
11:15 PM,23.2,20.1,88,30.40,10.0,SE,6.9,-,N/A,,Clear,140,2012-11-16 05:15:00
11:35 PM,23.4,20.8,90,30.40,10.0,SSE,6.9,-,N/A,,Clear,150,2012-11-16 05:35:00
11:55 PM,23.5,20.3,87,30.40,10.0,SSE,4.6,-,N/A,,Clear,160,2012-11-16 05:55:00